Station 45012 (LLNR 2655) - EAST Lake Ontario - 20NM North Northeast of Rochester, NY Image indicating link to RSS feed of recent meteorological observations for station 45012


Conditions at 45012 as of
(1:40 am EDT)
0540 GMT on 07/19/2024:
     

Click on the graph icon in the table below to see a time series plot of the last five days of that observation.

5-day plot - Wind Direction Wind Direction (WDIR):NNW ( 330 deg true )
5-day plot - Wind Speed Wind Speed (WSPD): 11.7 kts
5-day plot - Wind Gust Wind Gust (GST): 13.6 kts
5-day plot - Atmospheric Pressure Atmospheric Pressure (PRES):30.10 in
5-day plot - Air Temperature Air Temperature (ATMP): 68.0 °F
5-day plot - Water Temperature Water Temperature (WTMP): 71.2 °F
5-day plot - Dew Point Dew Point (DEWP): 58.6 °F
5-day plot - Wind Speed at 10 Meters Wind Speed at 10 meters (WSPD10M): 13.6 kts
5-day plot - Wind Speed at 20 Meters Wind Speed at 20 meters (WSPD20M): 13.6 kts
5-day plot -  Wind Speed, Wind Gust and Atmospheric Pressure Combined plot of Wind Speed, Gust, and Air Pressure
Supplemental Measurements
Highest 1-minute Wind Speed
Time (EDT)5-day plot - 1-Minute Wind Speed WSPD 5-day plot - 1-Minute Wind Direction WDIR
1:36 am 13.6 kts-
Previous observations
TIME
(EDT)
5-day plot - Wind Direction
WDIR
 
5-day plot - Wind Speed
WSPD
kts
5-day plot - Wind Gust
GST
kts
5-day plot - Wave Height
WVHT
ft
5-day plot - Dominant Wave Period
DPD
sec
5-day plot - Average Wave Period
APD
sec
5-day plot - Mean Wave Direction
MWD
 
5-day plot - Atmospheric Pressure
PRES
in
5-day plot - Pressure Tendency
PTDY
in
5-day plot - Air Temperature
ATMP
°F
5-day plot - Water Temperature
WTMP
°F
5-day plot - Dew Point
DEWP
°F
5-day plot - Salinity
SAL
psu
5-day plot - Visibility
VIS
nmi
5-day plot - Tide (above MLLW)
TIDE
ft
2024-07-19 01:30 amNNW 11.7 13.6----30.10- 68.2 71.4 58.8---
2024-07-19 01:20 amNNW 11.7 13.6 2.0 53.5 W30.10- 68.4 71.4 58.6---
2024-07-19 01:10 amNNW 11.7 13.6 2.0-3.5 W30.10- 68.5 71.4 58.8---
2024-07-19 01:00 amNNW 11.7 15.5----30.10+0.03 68.7 71.4 58.5---
2024-07-19 12:50 amNNW 11.7 15.5 2.0 43.4 W30.09- 68.9 71.4 59.0---
2024-07-19 12:40 amNNW 11.7 15.5----30.09- 69.1 71.4 58.8---
2024-07-19 12:30 amNNW 11.7 15.5----30.09- 69.3 71.6 58.6---
2024-07-19 12:20 amNNW 11.7 13.6 2.0 43.3 W30.09- 69.3 71.6 58.8---
2024-07-19 12:10 amNNW 11.7 15.5 2.0-3.3 W30.09- 69.3 71.8 59.2---
2024-07-19 12:00 am NW 11.7 13.6----30.09+0.04 69.3 71.8 58.6---
2024-07-18 11:50 pmNNW 11.7 13.6 2.0 43.3 W30.08- 69.6 71.8 58.6---
2024-07-18 11:40 pmNNW 11.7 13.6 2.0-3.3 W30.08- 70.0 72.0 58.3---
2024-07-18 11:30 pmNNW 13.6 15.5----30.08- 70.0 72.0 57.2---
2024-07-18 11:20 pmNNW 13.6 15.5 2.0 43.3 W30.08- 70.2 72.0 57.9---
2024-07-18 11:10 pmNNW 13.6 15.5 2.0-3.3 W30.07- 70.2 72.0 58.1---
2024-07-18 11:00 pmNNW 13.6 17.5----30.07+0.04 70.5 72.0 57.9---
2024-07-18 10:50 pmNNW 13.6 15.5 2.0 53.4 W30.07- 70.5 72.0 57.9---
2024-07-18 10:40 pmNNW 13.6 15.5----30.07- 70.7 72.0 57.7---
2024-07-18 10:30 pmNNW 13.6 15.5----30.06- 71.1 72.0 57.2---
2024-07-18 10:20 pm NW 11.7 15.5 2.0 53.5 W30.07- 71.2 72.0 57.7---
2024-07-18 10:10 pm NW 11.7 13.6 2.0-3.5 W30.06- 71.2 72.1 58.5---
2024-07-18 10:00 pm NW 11.7 15.5----30.06+0.04 71.2 72.0 58.3---
2024-07-18 09:50 pm NW 13.6 15.5 2.3 53.5 W30.06- 71.2 72.0 57.7---
2024-07-18 09:40 pm NW 13.6 15.5----30.06- 71.2 72.0 58.1---
2024-07-18 09:30 pm NW 13.6 15.5----30.06- 71.2 72.1 58.1---
2024-07-18 09:20 pm NW 13.6 15.5 2.6 53.7 W30.06- 71.2 72.1 57.7---
2024-07-18 09:10 pm NW 13.6 15.5 2.6-3.7 W30.05- 71.2 72.1 58.3---
2024-07-18 09:00 pm NW 13.6 15.5----30.05+0.03 71.1 72.1 58.6---
2024-07-18 08:50 pmWNW 13.6 15.5 2.6 53.6 W30.05- 71.2 72.1 59.2---
2024-07-18 08:40 pmWNW 13.6 17.5----30.04- 71.1 72.1 59.2---
2024-07-18 08:30 pmWNW 13.6 17.5----30.04- 71.1 72.1 59.9---
2024-07-18 08:20 pmWNW 15.5 17.5 3.0 53.7 W30.04- 71.1 72.1 59.5---
2024-07-18 08:10 pmWNW 15.5 17.5 3.0-3.7 W30.04- 71.1 72.1 59.5---
2024-07-18 08:00 pmWNW 15.5 17.5----30.04+0.02 71.1 72.1 59.4---
2024-07-18 07:50 pm W 15.5 17.5 3.3 53.7 W30.03- 70.9 72.1 59.9---
2024-07-18 07:40 pmWNW 15.5 17.5----30.03- 70.9 72.3 59.7---
2024-07-18 07:30 pm W 15.5 19.4----30.03- 70.9 72.3 59.7---
2024-07-18 07:20 pm W 15.5 17.5 3.0 53.6 W30.03- 70.7 72.3 59.4---
2024-07-18 07:10 pm W 15.5 19.4 3.0-3.6 W30.03- 70.7 72.3 59.5---
2024-07-18 07:00 pm W 15.5 19.4----30.03+0.00 70.7 72.3 59.7---
2024-07-18 06:50 pm W 17.5 19.4 3.0 43.6 W30.03- 70.5 72.3 59.0---
2024-07-18 06:40 pm W 17.5 19.4----30.02- 70.5 72.3 58.8---
2024-07-18 06:30 pm W 15.5 19.4----30.02- 70.5 72.3 59.0---
2024-07-18 06:20 pm W 15.5 19.4 3.0 43.5 W30.02- 70.5 72.3 59.0---
2024-07-18 06:10 pm W 15.5 19.4 3.0-3.5 W30.02- 70.3 72.3 58.5---
2024-07-18 06:00 pm W 17.5 21.4----30.02-0.01 70.3 72.5 58.8---
2024-07-18 05:50 pm W 17.5 19.4 3.0 43.5 W30.02- 70.3 72.5 58.8---
2024-07-18 05:40 pm W 17.5 19.4 3.0-3.5 W30.02- 70.2 72.5 58.1---
2024-07-18 05:30 pm W 17.5 21.4----30.02- 70.0 72.5 58.1---
2024-07-18 05:20 pm W 15.5 19.4 2.6 43.4 W30.02- 70.0 72.5 58.6---
2024-07-18 05:10 pm W 17.5 21.4 2.6-3.4 W30.02- 69.8 72.5 58.5---
2024-07-18 05:00 pm W 15.5 19.4----30.02+0.00 69.8 72.5 58.8---
2024-07-18 04:50 pm W 17.5 21.4 2.6 43.4 W30.02- 69.6 72.5 58.6---
2024-07-18 04:40 pm W 17.5 21.4 2.6-3.4 W30.02- 69.4 72.5 59.0---
2024-07-18 04:30 pm W 15.5 19.4----30.02- 69.3 72.5 58.5---
2024-07-18 04:20 pm W 15.5 19.4 2.6 43.3 W30.02- 69.1 72.5 58.8---
2024-07-18 04:10 pm W 15.5 19.4 2.6-3.3 W30.02- 69.1 72.5 58.6---
2024-07-18 04:00 pm W 15.5 21.4----30.03+0.00 68.9 72.5 58.3---
2024-07-18 03:50 pm W 17.5 19.4 2.3 43.3WSW30.02- 68.7 72.5 58.1---
2024-07-18 03:40 pm W 15.5 19.4----30.03- 68.7 72.5 58.5---
2024-07-18 03:30 pm W 15.5 19.4----30.02- 68.7 72.5 58.1---
2024-07-18 03:20 pm W 15.5 19.4 2.3 43.3 W30.02- 68.5 72.5 57.6---
2024-07-18 03:10 pm W 15.5 17.5 2.3-3.3 W30.03- 68.4 72.5 57.2---
2024-07-18 03:00 pm W 15.5 19.4----30.03+0.01 68.4 72.5 57.4---
2024-07-18 02:50 pm W 15.5 17.5 2.0 43.2 W30.02- 68.2 72.5 56.8---
2024-07-18 02:40 pm W 13.6 19.4 2.0-3.2 W30.02- 68.0 72.3 57.2---
2024-07-18 02:30 pm W 13.6 17.5----30.02- 67.8 72.3 56.7---
2024-07-18 02:20 pm W 13.6 17.5 2.0 43.2 W30.02- 67.8 72.3 56.7---
2024-07-18 02:10 pm W 13.6 17.5 2.0-3.2 W30.02- 67.6 72.3 57.0---
2024-07-18 02:00 pm W 13.6 17.5----30.02+0.00 67.6 72.3 57.4---
2024-07-18 01:50 pm W 13.6 17.5 2.0 43.3 W30.02- 67.5 72.3 57.2---
2024-07-18 01:40 pmWNW 13.6 15.5----30.02- 67.5 72.3 57.0---
2024-07-18 01:30 pm W 11.7 15.5----30.02- 67.3 72.3 57.4---
2024-07-18 01:20 pm W 11.7 15.5 1.6 43.4 W30.02- 67.3 72.1 57.0---
2024-07-18 01:10 pmWNW 11.7 15.5 1.6-3.4 W30.02- 67.1 72.1 57.4---
2024-07-18 01:00 pmWNW 11.7 13.6----30.03+0.03 67.1 72.1 56.8---
2024-07-18 12:50 pmWNW 11.7 13.6 1.6 43.4 W30.02- 67.1 72.1 57.0---
2024-07-18 12:40 pmWNW 9.7 13.6 1.6-3.4 W30.02- 66.9 72.1 56.7---
2024-07-18 12:30 pm W 9.7 13.6----30.02- 66.9 72.1 57.4---
2024-07-18 12:20 pmWNW 9.7 13.6 1.6 43.4 W30.02- 66.6 72.1 57.9---
2024-07-18 12:10 pm W 7.8 11.7 1.6-3.4 W30.02- 66.2 72.1 58.5---
2024-07-18 12:00 pm W 7.8 11.7----30.02+0.04 66.4 72.1 58.1---
2024-07-18 11:50 am W 7.8 11.7 2.0 53.4 W30.02- 66.2 72.1 58.1---
2024-07-18 11:40 am W 7.8 11.7----30.02- 66.2 72.1 57.7---
2024-07-18 11:30 amWNW 7.8 11.7----30.02- 66.2 72.1 57.4---
2024-07-18 11:20 amWNW 9.7 11.7 1.6 43.5 W30.02- 66.0 72.1 57.2---
2024-07-18 11:10 am NW 9.7 13.6 1.6-3.5 W30.01- 66.0 72.1 57.7---
2024-07-18 11:00 amWNW 9.7 13.6----30.01+0.04 66.0 72.0 57.9---
2024-07-18 10:50 amWNW 9.7 11.7 2.0 53.5 W30.01- 66.0 72.1 57.9---
2024-07-18 10:40 amWNW 9.7 13.6 2.0-3.5 W30.01- 66.0 72.1 57.2---
2024-07-18 10:30 am NW 9.7 13.6----30.01- 66.0 72.1 57.9---
2024-07-18 10:20 am NW 11.7 13.6 2.0 43.5 W30.00- 66.2 72.1 57.7---
2024-07-18 10:10 am NW 9.7 13.6 2.0-3.5 W30.00- 66.0 72.1 57.2---
2024-07-18 10:00 am NW 9.7 13.6----29.99+0.05 66.4 72.0 58.1---
2024-07-18 09:50 am NW 9.7 11.7 2.0 43.5 W29.99- 66.4 72.0 57.9---
2024-07-18 09:40 am NW 9.7 13.6----29.99- 66.4 72.0 57.6---
2024-07-18 09:30 am NW 9.7 13.6----29.99- 66.7 72.0 58.3---
2024-07-18 09:20 am NW 9.7 13.6 2.0 43.5 W29.99- 66.9 72.0 57.6---
2024-07-18 09:10 am NW 9.7 13.6 2.0-3.5 W29.98- 66.9 72.0 57.4---
2024-07-18 09:00 amWNW 9.7 11.7----29.98+0.05 67.1 72.0 57.9---
2024-07-18 08:50 amWNW 9.7 13.6 2.0 53.6 W29.98- 67.1 72.0 58.5---
2024-07-18 08:40 amWNW 11.7 15.5 2.0-3.6 W29.98- 67.5 72.0 59.0---
2024-07-18 08:30 amWNW 11.7 13.6----29.98- 67.5 72.0 58.5---
2024-07-18 08:20 amWNW 9.7 13.6 2.3 53.6 W29.97- 67.5 72.0 58.8---
2024-07-18 08:10 amWNW 11.7 13.6 2.3-3.6 W29.97- 67.5 72.0 58.8---
2024-07-18 08:00 amWNW 9.7 13.6----29.97+0.05 67.6 72.0 58.6---
2024-07-18 07:50 amWNW 11.7 15.5 2.3 43.6WNW29.96- 67.6 72.0 59.2---
2024-07-18 07:40 amWNW 11.7 15.5----29.96- 67.6 72.0 60.1---
2024-07-18 07:30 amWNW 11.7 13.6----29.96- 67.6 72.0 59.4---
2024-07-18 07:20 amWNW 9.7 13.6 2.0 43.5WNW29.95- 67.6 72.0 59.5---
2024-07-18 07:10 amWNW 11.7 13.6 2.0-3.5WNW29.94- 67.8 72.0 59.5---
2024-07-18 07:00 amWNW 11.7 13.6----29.94+0.05 67.8 72.0 59.5---
2024-07-18 06:50 amWNW 11.7 13.6 2.3 43.6WNW29.94- 67.8 72.0 59.7---
2024-07-18 06:40 amWNW 11.7 13.6----29.94- 67.8 72.1 59.7---
2024-07-18 06:30 amWNW 11.7 15.5----29.93- 67.8 72.1 60.4---
2024-07-18 06:20 amWNW 11.7 15.5 2.3 53.6WNW29.93- 68.0 72.1 60.1---
2024-07-18 06:10 amWNW 11.7 15.5 2.3-3.6WNW29.93- 68.0 72.1 60.8---
2024-07-18 06:00 amWNW 11.7 15.5----29.93+0.05 68.2 72.1 60.6---
2024-07-18 05:50 amWNW 13.6 15.5 2.6 53.6WNW29.93- 68.2 72.1 60.4---
2024-07-18 05:40 amWNW 11.7 13.6 2.6-3.6WNW29.93- 68.4 72.3 60.8---
2024-07-18 05:30 amWNW 11.7 17.5----29.93- 68.4 72.3 61.0---
2024-07-18 05:20 amWNW 13.6 15.5 2.6 43.6WNW29.93- 68.4 72.3 60.8---
2024-07-18 05:10 am NW 13.6 15.5 2.6-3.6WNW29.92- 68.5 72.3 60.6---
2024-07-18 05:00 am NW 13.6 15.5----29.91+0.04 68.5 72.3 60.4---
2024-07-18 04:50 am NW 13.6 15.5 2.6 43.5WNW29.91- 68.5 72.3 60.4---
2024-07-18 04:40 am NW 13.6 15.5 2.6-3.5WNW29.91- 68.7 72.3 60.1---
2024-07-18 04:30 amNNW 13.6 17.5----29.90- 68.7 72.3 59.9---
2024-07-18 04:20 am NW 11.7 15.5 2.3 43.3WNW29.90- 68.7 72.3 59.9---
2024-07-18 04:10 am NW 11.7 15.5 2.3-3.3WNW29.90- 68.9 72.3 60.3---
2024-07-18 04:00 am NW 11.7 15.5----29.90+0.02 69.1 72.3 60.1---
2024-07-18 03:50 am NW 11.7 15.5 2.3 43.4 NW29.90- 69.1 72.3 59.9---
2024-07-18 03:40 am NW 11.7 15.5----29.89- 69.1 72.3 60.1---
2024-07-18 03:30 am NW 13.6 15.5----29.89- 69.3 72.3 60.6---
2024-07-18 03:20 am NW 13.6 17.5 2.3 43.3WNW29.89- 69.3 72.3 60.3---
2024-07-18 03:10 am NW 13.6 17.5 2.3-3.3WNW29.88- 69.4 72.3 60.8---
2024-07-18 03:00 am NW 13.6 17.5----29.88+0.02 69.8 72.3 61.2---
2024-07-18 02:50 am NW 15.5 17.5 2.0 43.3WNW29.88- 70.0 72.3 60.4---
2024-07-18 02:40 am NW 15.5 17.5----29.88- 70.3 72.3 60.1---
2024-07-18 02:30 am NW 13.6 15.5----29.88- 70.5 72.3 59.4---
2024-07-18 02:20 am NW 13.6 15.5 2.0 43.3WNW29.88- 70.5 72.3 59.7---
2024-07-18 02:10 am NW 13.6 15.5 2.0-3.3WNW29.87- 70.7 72.3 60.3---
2024-07-18 02:00 amNNW 11.7 15.5----29.87+0.03 70.9 72.3 60.6---
2024-07-18 01:50 amNNW 11.7 15.5 1.6 43.1WNW29.87- 71.2 72.3 61.9---

Detailed Wave Summary
for 45012 as of (1:10 am EDT)
0510 GMT on 07/19/2024:

These wave data are displayed in rounded times.

     

Click on the graph icon in the table below to see a time series plot of the last five days of that observation.

5-day plot - Significant Wave Height Significant Wave Height (WVHT): 2.0 ft
5-day plot - Swell Height Swell Height (SwH): 0.3 ft
5-day plot - Swell Period Swell Period (SwP): 7.7 sec
5-day plot - Swell Direction Swell Direction (SwD): NW
5-day plot - Wind Wave Height Wind Wave Height (WWH): 2.0 ft
5-day plot - Wind Wave Period Wind Wave Period (WWP): 4.5 sec
5-day plot - Wind Wave Direction Wind Wave Direction (WWD): W
5-day plot - Average Wave Period Average Wave Period (APD): 3.5 sec
Previous observations
TIME
(EDT)
5-day plot - Wave Height
WVHT
ft
5-day plot - Swell Height
SwH
ft
5-day plot - Swell Period
SwP
sec
5-day plot - Swell Direction
SwD
 
5-day plot - Wind Wave Height
WWH
ft
5-day plot - Wind Wave Period
WWP
sec
5-day plot - Wind Wave Direction
WWD
 
5-day plot - Wave Steepness
STEEPNESS
 
5-day plot - Average Wave Period
APD
sec
2024-07-19 12:40 am 2.0 0.0 7.1WNW 2.0 4.2 W N/A 3.4
2024-07-19 12:10 am 2.0 0.0 7.7 NE 2.0 4.0 W N/A 3.3
2024-07-18 11:40 pm 2.0 0.0 7.1WNW 2.0 4.3 W N/A 3.3
2024-07-18 11:10 pm 2.0 0.0 6.7 NW 2.0 4.3 W N/A 3.3
2024-07-18 10:40 pm 2.0 0.0 7.7NNW 2.0 4.5 W N/A 3.4
2024-07-18 10:10 pm 2.0 0.0 9.1NNW 2.0 4.8 W N/A 3.5
2024-07-18 09:40 pm 2.3 0.0 7.1NNW 2.3 4.5 W N/A 3.5
2024-07-18 09:10 pm 2.6 0.0-- 2.6 4.5 WVERY_STEEP 3.7
2024-07-18 08:40 pm 2.6 0.0-- 2.6 4.8 WVERY_STEEP 3.6
2024-07-18 08:10 pm 3.0 0.0-- 3.0 4.5 WVERY_STEEP 3.7
2024-07-18 07:40 pm 3.3 0.0-- 3.3 4.5 WVERY_STEEP 3.7
2024-07-18 07:10 pm 3.0 0.0 7.1WSW 3.0 4.5 WVERY_STEEP 3.6
2024-07-18 06:40 pm 3.0 0.0-- 3.0 4.3 WVERY_STEEP 3.6
2024-07-18 06:10 pm 3.0 0.0 9.1 SW 2.6 4.2 WVERY_STEEP 3.5
2024-07-18 05:40 pm 3.0 0.0 6.7NNW 3.0 4.2 WVERY_STEEP 3.5
2024-07-18 05:10 pm 2.6 0.0 7.1 W 2.6 4.2 WVERY_STEEP 3.4
2024-07-18 04:40 pm 2.6 0.0 7.7 NE 2.6 4.0 W N/A 3.4
2024-07-18 04:10 pm 2.6 0.0 7.7 W 2.6 4.0 W N/A 3.3
2024-07-18 03:40 pm 2.3 0.0 7.7 W 2.3 4.2 WSW N/A 3.3
2024-07-18 03:10 pm 2.3 0.0 7.7SSW 2.3 3.6 W N/A 3.3
2024-07-18 02:40 pm 2.0 0.0 8.3 W 2.0 3.7 W N/A 3.2
2024-07-18 02:10 pm 2.0 0.0 7.1WSW 2.0 3.8 W N/A 3.2
2024-07-18 01:40 pm 2.0 0.0-- 2.0 4.2 W N/A 3.3
2024-07-18 01:10 pm 1.6 0.0 7.1WNW 1.6 4.2 W N/A 3.4
2024-07-18 12:40 pm 1.6 0.3 10.0NNE 1.6 4.3 W N/A 3.4
2024-07-18 12:10 pm 1.6 0.7 4.8 W 1.3 4.0 W N/A 3.4
2024-07-18 11:40 am 2.0 1.0 4.5 W 1.3 3.7 W N/A 3.4
2024-07-18 11:10 am 1.6 0.3 7.7WNW 1.6 4.3 W N/A 3.5
2024-07-18 10:40 am 2.0 1.0 4.8 W 1.6 4.3 W N/A 3.5
2024-07-18 10:10 am 2.0 0.0-- 2.0 4.2 W N/A 3.5
2024-07-18 09:40 am 2.0 0.7 9.1SSW 2.0 4.3 W N/A 3.5
2024-07-18 09:10 am 2.0 0.7 7.7WNW 2.0 4.0 W N/A 3.5
2024-07-18 08:40 am 2.0 0.0-- 2.0 4.8 W N/A 3.6
2024-07-18 08:10 am 2.3 0.0-- 2.3 4.5 W N/A 3.6
2024-07-18 07:40 am 2.3 0.3 5.9 W 2.3 4.3 WNW N/A 3.6
2024-07-18 07:10 am 2.0 0.0-- 2.0 4.2 WNW N/A 3.5
2024-07-18 06:40 am 2.3 0.0-- 2.3 4.3 WNW N/A 3.6
2024-07-18 06:10 am 2.3 0.0 10.0NNE 2.3 4.5 WNW N/A 3.6
2024-07-18 05:40 am 2.6 0.0 12.1 W 2.6 4.5 WNW N/A 3.6
2024-07-18 05:10 am 2.6 0.0 7.7NNW 2.6 4.3 WNWVERY_STEEP 3.6
2024-07-18 04:40 am 2.6 0.0 7.7NNW 2.6 4.2 WNW N/A 3.5
2024-07-18 04:10 am 2.3 0.0 7.7NNW 2.3 4.0 WNW N/A 3.3
2024-07-18 03:40 am 2.3 0.0-- 2.3 3.7 NW N/A 3.4
2024-07-18 03:10 am 2.3 0.0 8.3 NE 2.3 3.7 WNW N/A 3.3
2024-07-18 02:40 am 2.0 0.0 8.3 NW 2.0 4.2 WNW N/A 3.3
2024-07-18 02:10 am 2.0 0.0 6.7 SW 2.0 3.7 WNW N/A 3.3

Plot of wave energy versus frequency (and period)